Phoenix Deer Valley, AZ

1:32 PM MST on October 16, 2019 (GMT -0700)
Phoenix-Deer Valley Municipal

Weather History for KDVT - August, 2019

Change the Weather History Date:

Monday, August 19, 2019

  Actual Average Record
Temperature  
Mean Temperature 96 °F -  
Max Temperature 105 °F 99 °F 105 °F (2010)
Min Temperature 88 °F 79 °F 69 °F (2014)
Cooling Degree Days 32    
Growing Degree Days 46 (Base 50)    
Moisture  
Dew Point 40 °F    
Average Humidity 14    
Maximum Humidity 21    
Minimum Humidity 10    
Precipitation  
Precipitation 0.00 in - - ()
Sea Level Pressure  
Sea Level Pressure 29.84 in    
Wind  
Wind Speed 5 mph ()    
Max Wind Speed 12 mph    
Max Gust Speed 17 mph    
Visibility 10.0 miles    
Events      
Averages and records for this station are not official NWS values.
T = Trace of Precipitation, MM = Missing Value Source: Averaged Metar Reports

Daily Weather History Graph

Daily Weather History Graph

Search for Another Location

Airport or City:

Astronomy

Aug. 19, 2019 Rise Set
Actual Time 5:53 AM MST 7:10 PM MST
Civil Twilight 5:27 AM MST 7:36 PM MST
Nautical Twilight 4:55 AM MST 8:07 PM MST
Astronomical Twilight 4:23 AM MST 8:39 PM MST
Moon 9:44 PM MST (8/19) 9:28 AM MST (8/19)
Length of Visible Light 14h 09m
Length of Day
13h 17m
Waning Gibbous, 84% of the Moon is Illuminated
Aug 19
Waning Gibbous
Aug 23
Last Quarter
Aug 30
New
Sep 5
First Quarter
Sep 13
Full

Hourly Weather History & Observations

Time (MST) Temp. Dew Point Humidity Pressure Visibility Wind Dir Wind Speed Gust Speed Precip Events Conditions
12:53 AM - - N/A% 29.84 in - North - - N/A   Unknown
1:53 AM - - N/A% 29.85 in - North - - N/A   Unknown
2:53 AM - - N/A% 29.86 in - North - - N/A   Unknown
3:53 AM - - N/A% 29.87 in - North - - N/A   Unknown
4:53 AM - - N/A% 29.88 in - North - - N/A   Unknown
5:53 AM - - N/A% 29.90 in - North - - N/A   Unknown
6:53 AM - - N/A% 29.91 in - North - - N/A   Unknown
7:53 AM 88.0 °F 43.0 °F 21% 29.93 in 10.0 mi Calm Calm - N/A   Unknown
11:53 AM 100.0 °F 45.0 °F 15% 29.92 in 10.0 mi SSE 4.6 mph - N/A   Clear
12:07 PM 99.0 °F 45.0 °F 16% 29.91 in 10.0 mi WSW 5.8 mph - N/A   Clear
12:53 PM 100.0 °F 43.0 °F 14% 29.90 in 10.0 mi Variable 4.6 mph - N/A   Clear
1:53 PM 102.9 °F 42.1 °F 13% 29.88 in 10.0 mi SW 6.9 mph - N/A   Clear
2:53 PM 105.1 °F 39.9 °F 11% 29.85 in 10.0 mi WSW 11.5 mph 17.3 mph N/A   Clear
3:53 PM 105.1 °F 39.0 °F 10% 29.83 in 10.0 mi West 10.4 mph - N/A   Clear
4:53 PM 105.1 °F 37.9 °F 10% 29.82 in 10.0 mi SW 10.4 mph - N/A   Clear
5:53 PM 104.0 °F 37.9 °F 10% 29.80 in 10.0 mi SW 10.4 mph - N/A   Clear
6:53 PM 102.0 °F 37.0 °F 11% 29.80 in 10.0 mi SW 9.2 mph - N/A   Clear
7:53 PM 99.0 °F 37.9 °F 12% 29.72 in 10.0 mi SSW 4.6 mph - N/A   Clear
8:53 PM 97.0 °F 37.9 °F 13% 29.74 in 10.0 mi SSE 3.5 mph - N/A   Clear
9:53 PM 91.9 °F 37.0 °F 15% 29.75 in 10.0 mi Calm Calm - N/A   Clear
10:53 PM 89.1 °F 37.0 °F 16% 29.76 in 10.0 mi NE 3.5 mph - N/A   Clear
11:53 PM 89.1 °F 37.0 °F 16% 29.76 in 10.0 mi NNE 10.4 mph - N/A   Clear